KLM68P EGNT-EHAM

Flight info

Callsign KLM68P
Flight time 0h 55m
Altitude 25000
Route GIRLI P18 GASKO/N0355F230 Y250 OBOXA/N0366F250 Y250 KEFTE/N0424F350 UY250 MAMUL L603 LAMSO
Aircraft A20N/M-SDE2E3FGHIRWXY/LB1

Departure

Time 2026-05-05 17:09
Airport Newcastle International Airport (EGNT)

Arrival

Time 2026-05-05 18:04
Airport Amsterdam Airport Schiphol (EHAM)
Time Latitude Longitude Altitude Speed Heading
2026-05-05 16:46 55.03735 -1.70670 266 ft 0 kts 184°
2026-05-05 17:00 55.03748 -1.70669 266 ft 4 kts 184°
2026-05-05 17:00 55.03774 -1.70664 266 ft 4 kts 196°
2026-05-05 17:00 55.03794 -1.70649 266 ft 0 kts 225°
2026-05-05 17:01 55.03803 -1.70626 239 ft 4 kts 265°
2026-05-05 17:01 55.03803 -1.70608 251 ft 1 kts 274°
2026-05-05 17:04 55.03804 -1.70611 252 ft 0 kts 282°
2026-05-05 17:05 55.03808 -1.70618 250 ft 2 kts 305°
2026-05-05 17:05 55.03820 -1.70617 277 ft 1 kts 27°
2026-05-05 17:05 55.03820 -1.70606 273 ft 0 kts 85°
2026-05-05 17:05 55.03816 -1.70581 266 ft 4 kts 102°
2026-05-05 17:06 55.03804 -1.70502 265 ft 9 kts 109°
2026-05-05 17:06 55.03749 -1.70431 263 ft 12 kts 181°
2026-05-05 17:06 55.03649 -1.70450 262 ft 16 kts 188°
2026-05-05 17:06 55.03593 -1.70573 264 ft 10 kts 258°
2026-05-05 17:07 55.03537 -1.70641 263 ft 12 kts 184°
2026-05-05 17:07 55.03467 -1.70645 263 ft 4 kts 181°
2026-05-05 17:07 55.03437 -1.70646 264 ft 6 kts 181°
2026-05-05 17:07 55.03393 -1.70637 266 ft 6 kts 152°
2026-05-05 17:08 55.03378 -1.70572 267 ft 7 kts 88°
2026-05-05 17:08 55.03393 -1.70495 265 ft 0 kts 66°
2026-05-05 17:08 55.03401 -1.70464 264 ft 21 kts 66°
2026-05-05 17:08 55.03572 -1.69822 265 ft 92 kts 67°
2026-05-05 17:09 55.03916 -1.68504 292 ft 141 kts 65°
2026-05-05 17:09 55.04303 -1.66905 864 ft 147 kts 64°
2026-05-05 17:09 55.04706 -1.65265 1569 ft 147 kts 62°
2026-05-05 17:09 55.05153 -1.63710 2345 ft 146 kts 58°
2026-05-05 17:10 55.05644 -1.62056 2784 ft 163 kts 59°
2026-05-05 17:10 55.06175 -1.60174 3243 ft 184 kts 60°
2026-05-05 17:10 55.06663 -1.57972 3745 ft 207 kts 77°
2026-05-05 17:10 55.06443 -1.55408 4409 ft 226 kts 114°
2026-05-05 17:11 55.05385 -1.53287 5128 ft 243 kts 145°
2026-05-05 17:11 55.03770 -1.52338 5933 ft 246 kts 178°
2026-05-05 17:11 55.02078 -1.52423 6819 ft 252 kts 188°
2026-05-05 17:11 55.00262 -1.52783 7383 ft 273 kts 189°
2026-05-05 17:12 54.98338 -1.53194 7842 ft 284 kts 195°
2026-05-05 17:12 54.96521 -1.54257 8178 ft 283 kts 210°
2026-05-05 17:12 54.94841 -1.56024 9051 ft 281 kts 216°
2026-05-05 17:12 54.93172 -1.57757 10127 ft 282 kts 214°
2026-05-05 17:13 54.91447 -1.59576 10715 ft 299 kts 214°
2026-05-05 17:13 54.89613 -1.61571 11042 ft 322 kts 216°
2026-05-05 17:13 54.87666 -1.63665 11585 ft 335 kts 215°
2026-05-05 17:13 54.85703 -1.65800 12396 ft 338 kts 215°
2026-05-05 17:14 54.83702 -1.67979 13280 ft 341 kts 215°
2026-05-05 17:14 54.81687 -1.70172 14106 ft 344 kts 215°
2026-05-05 17:14 54.79674 -1.72357 14728 ft 348 kts 215°
2026-05-05 17:14 54.77552 -1.74393 14963 ft 352 kts 204°
2026-05-05 17:15 54.75174 -1.75507 15100 ft 357 kts 196°
2026-05-05 17:15 54.72735 -1.76448 15625 ft 360 kts 195°
2026-05-05 17:15 54.70319 -1.77353 16463 ft 361 kts 195°
2026-05-05 17:15 54.67855 -1.78280 17200 ft 364 kts 195°
2026-05-05 17:16 54.65566 -1.79151 17877 ft 367 kts 196°
2026-05-05 17:16 54.63005 -1.80131 18571 ft 370 kts 196°
2026-05-05 17:16 54.60479 -1.81101 19214 ft 373 kts 196°
2026-05-05 17:16 54.57946 -1.82076 19845 ft 375 kts 196°
2026-05-05 17:17 54.55382 -1.83061 20476 ft 378 kts 196°
2026-05-05 17:17 54.52798 -1.84052 21089 ft 381 kts 196°
2026-05-05 17:17 54.50245 -1.85030 21698 ft 384 kts 196°
2026-05-05 17:17 54.47627 -1.86032 22288 ft 387 kts 196°
2026-05-05 17:18 54.44984 -1.87044 22825 ft 391 kts 196°
2026-05-05 17:18 54.42325 -1.88058 23014 ft 392 kts 196°
2026-05-05 17:18 54.39723 -1.89049 23047 ft 392 kts 196°
2026-05-05 17:18 54.36992 -1.90087 23049 ft 392 kts 196°
2026-05-05 17:19 54.34329 -1.91099 23046 ft 392 kts 196°
2026-05-05 17:19 54.31665 -1.92111 23042 ft 392 kts 195°
2026-05-05 17:19 54.28997 -1.93123 23042 ft 392 kts 195°
2026-05-05 17:19 54.26374 -1.94109 23040 ft 393 kts 194°
2026-05-05 17:20 54.23637 -1.94453 23046 ft 399 kts 179°
2026-05-05 17:20 54.20889 -1.93494 23295 ft 410 kts 162°
2026-05-05 17:20 54.18332 -1.91286 23909 ft 415 kts 152°
2026-05-05 17:20 54.15891 -1.88746 24427 ft 417 kts 151°
2026-05-05 17:21 54.13416 -1.86164 24919 ft 419 kts 151°
2026-05-05 17:21 54.10924 -1.83567 25416 ft 421 kts 151°
2026-05-05 17:21 54.08450 -1.80995 25887 ft 423 kts 151°
2026-05-05 17:22 54.03546 -1.75913 26773 ft 427 kts 151°
2026-05-05 17:22 54.01346 -1.73638 27175 ft 429 kts 151°
2026-05-05 17:22 53.98787 -1.70995 27597 ft 432 kts 151°
2026-05-05 17:22 53.96407 -1.68543 28000 ft 433 kts 150°
2026-05-05 17:23 53.93911 -1.65972 28396 ft 436 kts 150°
2026-05-05 17:23 53.91329 -1.63312 28795 ft 438 kts 151°
2026-05-05 17:23 53.88803 -1.60716 29174 ft 440 kts 151°
2026-05-05 17:23 53.86333 -1.58185 29522 ft 442 kts 150°
2026-05-05 17:24 53.86193 -1.58042 29536 ft 442 kts 150°
2026-05-05 17:24 53.84031 -1.55827 29881 ft 442 kts 150°
2026-05-05 17:24 53.81436 -1.53175 30267 ft 444 kts 150°
2026-05-05 17:24 53.78786 -1.50470 30522 ft 447 kts 150°
2026-05-05 17:25 53.76161 -1.47794 30815 ft 450 kts 150°
2026-05-05 17:25 53.74342 -1.45941 31017 ft 451 kts 150°
2026-05-05 17:25 53.70806 -1.42342 31589 ft 449 kts 150°
2026-05-05 17:25 53.68105 -1.39604 31930 ft 450 kts 150°
2026-05-05 17:26 53.65431 -1.36894 32398 ft 447 kts 150°
2026-05-05 17:26 53.62764 -1.34203 32803 ft 446 kts 151°
2026-05-05 17:26 53.59999 -1.31916 33172 ft 444 kts 159°
2026-05-05 17:26 53.57056 -1.30321 33486 ft 444 kts 167°
2026-05-05 17:27 53.54034 -1.29462 33736 ft 445 kts 175°
2026-05-05 17:27 53.50962 -1.28939 34038 ft 445 kts 169°
2026-05-05 17:27 53.48109 -1.27514 34303 ft 446 kts 158°
2026-05-05 17:27 53.45299 -1.25280 34621 ft 445 kts 152°
2026-05-05 17:28 53.42733 -1.22325 34876 ft 447 kts 140°
2026-05-05 17:28 53.40602 -1.18530 34990 ft 449 kts 127°
2026-05-05 17:28 53.38995 -1.14047 35004 ft 451 kts 115°
2026-05-05 17:29 53.37147 -1.04078 35010 ft 453 kts 105°
2026-05-05 17:29 53.35526 -0.93945 35004 ft 449 kts 108°
2026-05-05 17:30 53.33736 -0.83928 34996 ft 450 kts 109°
2026-05-05 17:30 53.31891 -0.74019 35001 ft 449 kts 109°
2026-05-05 17:31 53.30020 -0.64041 34994 ft 449 kts 109°
2026-05-05 17:31 53.28150 -0.54093 34990 ft 450 kts 109°
2026-05-05 17:32 53.26260 -0.44111 34995 ft 451 kts 109°
2026-05-05 17:32 53.24370 -0.34163 34986 ft 451 kts 109°
2026-05-05 17:33 53.22468 -0.24218 34985 ft 452 kts 109°
2026-05-05 17:33 53.20562 -0.14295 34987 ft 453 kts 109°
2026-05-05 17:34 53.18613 -0.04205 34999 ft 454 kts 110°
2026-05-05 17:34 53.16669 0.05812 34998 ft 455 kts 110°
2026-05-05 17:35 53.14714 0.15827 35001 ft 456 kts 110°
2026-05-05 17:35 53.12745 0.25866 35005 ft 456 kts 110°
2026-05-05 17:36 53.10767 0.35894 35008 ft 456 kts 110°
2026-05-05 17:36 53.08792 0.45859 35000 ft 456 kts 110°
2026-05-05 17:37 53.06801 0.55857 34987 ft 456 kts 110°
2026-05-05 17:37 53.04796 0.65865 34980 ft 456 kts 111°
2026-05-05 17:38 53.02787 0.75846 34977 ft 456 kts 111°
2026-05-05 17:38 53.00771 0.85812 34984 ft 456 kts 111°
2026-05-05 17:39 52.98761 0.95700 34974 ft 455 kts 111°
2026-05-05 17:39 52.97180 1.05873 34971 ft 457 kts 103°
2026-05-05 17:40 52.96007 1.16212 34968 ft 457 kts 103°
2026-05-05 17:40 52.94810 1.26565 34958 ft 456 kts 103°
2026-05-05 17:41 52.93604 1.36865 34962 ft 456 kts 104°
2026-05-05 17:41 52.92385 1.47196 34957 ft 456 kts 104°
2026-05-05 17:42 52.91166 1.57442 34954 ft 457 kts 104°
2026-05-05 17:42 52.89929 1.67764 34956 ft 457 kts 104°
2026-05-05 17:43 52.88683 1.78076 34958 ft 457 kts 104°
2026-05-05 17:43 52.87426 1.88406 34960 ft 458 kts 104°
2026-05-05 17:44 52.86158 1.98742 34735 ft 458 kts 104°
2026-05-05 17:44 52.85524 2.03884 34484 ft 457 kts 104°
2026-05-05 17:44 52.84888 2.09022 34245 ft 455 kts 104°
2026-05-05 17:44 52.84258 2.14088 33761 ft 457 kts 104°
2026-05-05 17:45 52.83614 2.19245 32940 ft 460 kts 104°
2026-05-05 17:45 52.82962 2.24441 32076 ft 462 kts 104°
2026-05-05 17:45 52.82312 2.29618 31295 ft 462 kts 104°
2026-05-05 17:45 52.81656 2.34816 30494 ft 462 kts 104°
2026-05-05 17:46 52.80999 2.40005 29845 ft 458 kts 104°
2026-05-05 17:46 52.80350 2.45121 29274 ft 451 kts 104°
2026-05-05 17:46 52.79709 2.50157 28700 ft 445 kts 104°
2026-05-05 17:46 52.79073 2.55126 28133 ft 439 kts 104°
2026-05-05 17:47 52.78442 2.60021 27577 ft 433 kts 104°
2026-05-05 17:47 52.77819 2.64805 27042 ft 428 kts 106°
2026-05-05 17:47 52.76983 2.69467 26696 ft 424 kts 109°
2026-05-05 17:47 52.76125 2.74135 26287 ft 429 kts 109°
2026-05-05 17:48 52.75258 2.78868 25729 ft 431 kts 109°
2026-05-05 17:48 52.74388 2.83587 25195 ft 428 kts 109°
2026-05-05 17:48 52.73519 2.88252 24630 ft 424 kts 109°
2026-05-05 17:48 52.72650 2.92884 24074 ft 420 kts 109°
2026-05-05 17:49 52.71790 2.97453 23536 ft 416 kts 109°
2026-05-05 17:49 52.70935 3.01979 22938 ft 411 kts 110°
2026-05-05 17:49 52.70102 3.06382 22414 ft 404 kts 109°
2026-05-05 17:49 52.69256 3.10825 21877 ft 399 kts 109°
2026-05-05 17:50 52.68442 3.15103 21349 ft 394 kts 109°
2026-05-05 17:50 52.67626 3.19387 20846 ft 389 kts 110°
2026-05-05 17:50 52.66813 3.23630 20505 ft 389 kts 109°
2026-05-05 17:50 52.65994 3.27891 20230 ft 391 kts 109°
2026-05-05 17:51 52.65186 3.32100 19874 ft 390 kts 109°
2026-05-05 17:51 52.64357 3.36407 19374 ft 388 kts 109°
2026-05-05 17:51 52.63540 3.40638 18748 ft 389 kts 109°
2026-05-05 17:51 52.62715 3.44898 18009 ft 391 kts 109°
2026-05-05 17:52 52.61896 3.49129 17539 ft 384 kts 109°
2026-05-05 17:52 52.61090 3.53289 17245 ft 376 kts 109°
2026-05-05 17:52 52.60296 3.57367 16689 ft 376 kts 108°
2026-05-05 17:52 52.59495 3.61473 15897 ft 380 kts 108°
2026-05-05 17:53 52.58689 3.65592 15432 ft 375 kts 108°
2026-05-05 17:53 52.57910 3.69569 15101 ft 366 kts 109°
2026-05-05 17:53 52.57133 3.73531 14560 ft 364 kts 108°
2026-05-05 17:53 52.56360 3.77462 14240 ft 356 kts 108°
2026-05-05 17:54 52.55611 3.81267 14092 ft 344 kts 109°
2026-05-05 17:54 52.54888 3.84927 13987 ft 330 kts 109°
2026-05-05 17:54 52.54189 3.88464 13752 ft 322 kts 108°
2026-05-05 17:54 52.53505 3.91913 13558 ft 313 kts 109°
2026-05-05 17:55 52.52835 3.95288 13336 ft 313 kts 109°
2026-05-05 17:55 52.52072 3.98671 13176 ft 317 kts 113°
2026-05-05 17:55 52.51247 4.02009 12883 ft 316 kts 112°
2026-05-05 17:55 52.50438 4.05268 12581 ft 311 kts 117°
2026-05-05 17:56 52.49148 4.08048 12223 ft 305 kts 140°
2026-05-05 17:56 52.47507 4.10247 11833 ft 305 kts 142°
2026-05-05 17:56 52.45846 4.12406 11442 ft 304 kts 142°
2026-05-05 17:56 52.44749 4.13835 11173 ft 303 kts 142°
2026-05-05 17:57 52.43088 4.15960 10772 ft 302 kts 142°
2026-05-05 17:57 52.41434 4.18059 10375 ft 300 kts 142°
2026-05-05 17:57 52.39789 4.20141 9993 ft 298 kts 142°
2026-05-05 17:57 52.38152 4.22205 9586 ft 297 kts 142°
2026-05-05 17:58 52.36520 4.24259 9174 ft 295 kts 142°
2026-05-05 17:58 52.34375 4.26953 8614 ft 293 kts 142°
2026-05-05 17:58 52.32761 4.28965 8203 ft 291 kts 142°
2026-05-05 17:58 52.31694 4.30288 7930 ft 290 kts 142°
2026-05-05 17:59 52.30092 4.32278 7531 ft 288 kts 142°
2026-05-05 17:59 52.28492 4.34258 7128 ft 287 kts 142°
2026-05-05 17:59 52.26905 4.36225 6726 ft 285 kts 142°
2026-05-05 17:59 52.25334 4.38167 6323 ft 284 kts 142°
2026-05-05 18:00 52.23804 4.40044 5724 ft 284 kts 142°
2026-05-05 18:00 52.22208 4.41899 5065 ft 285 kts 142°
2026-05-05 18:00 52.20677 4.43767 4318 ft 285 kts 131°
2026-05-05 18:00 52.19691 4.46492 3560 ft 275 kts 98°
2026-05-05 18:01 52.19826 4.49399 3374 ft 246 kts 69°
2026-05-05 18:01 52.20495 4.51820 3121 ft 232 kts 59°
2026-05-05 18:01 52.21310 4.54007 2840 ft 223 kts 54°
2026-05-05 18:01 52.22171 4.56222 2535 ft 235 kts 56°
2026-05-05 18:02 52.23037 4.58463 2200 ft 233 kts 56°
2026-05-05 18:02 52.23894 4.60692 1891 ft 231 kts 56°
2026-05-05 18:02 52.24737 4.62882 1571 ft 228 kts 56°
2026-05-05 18:02 52.25537 4.64965 1247 ft 206 kts 56°
2026-05-05 18:03 52.26252 4.66822 979 ft 182 kts 55°
2026-05-05 18:03 52.26878 4.68455 782 ft 159 kts 55°
2026-05-05 18:03 52.27428 4.69885 581 ft 142 kts 53°
2026-05-05 18:03 52.27929 4.71189 391 ft 130 kts 53°
2026-05-05 18:04 52.28422 4.72462 219 ft 134 kts 53°
2026-05-05 18:04 52.28916 4.73742 43 ft 130 kts 53°
2026-05-05 18:04 52.29358 4.74873 -3 ft 95 kts 58°
2026-05-05 18:04 52.29601 4.75515 -3 ft 39 kts 57°
2026-05-05 18:05 52.29753 4.75774 -4 ft 16 kts 30°
2026-05-05 18:05 52.29855 4.75854 -4 ft 17 kts 26°
2026-05-05 18:05 52.29925 4.75923 -3 ft 9 kts 30°
2026-05-05 18:05 52.29979 4.75978 -3 ft 10 kts 37°
2026-05-05 18:06 52.30025 4.76071 -3 ft 12 kts 56°
2026-05-05 18:06 52.30057 4.76150 -3 ft 13 kts 56°
2026-05-05 18:06 52.30128 4.76332 -3 ft 16 kts 59°
2026-05-05 18:06 52.30188 4.76494 -3 ft 17 kts 58°
2026-05-05 18:07 52.30257 4.76668 -3 ft 19 kts 56°
2026-05-05 18:07 52.30330 4.76858 -3 ft 20 kts 59°
2026-05-05 18:07 52.30407 4.77061 -3 ft 22 kts 57°
2026-05-05 18:07 52.30485 4.77274 -3 ft 22 kts 60°
2026-05-05 18:08 52.30569 4.77494 -3 ft 23 kts 52°
2026-05-05 18:08 52.30711 4.77592 -3 ft 23 kts
2026-05-05 18:08 52.30819 4.77554 -3 ft 14 kts 306°
2026-05-05 18:08 52.30837 4.77389 -3 ft 15 kts 271°
2026-05-05 18:09 52.30833 4.77348 -3 ft 1 kts 234°
2026-05-05 18:09 52.30826 4.77351 -3 ft 2 kts 177°
2026-05-05 18:09 52.30796 4.77357 -3 ft 3 kts 179°
2026-05-05 18:09 52.30782 4.77355 -3 ft 1 kts 184°
2026-05-05 18:10 52.30781 4.77355 -3 ft 0 kts 183°
2026-05-05 18:11 52.30781 4.77356 -3 ft 0 kts 183°